Year,Month,Day,Hour,Minute,Value (Times are PST for temperature in C)
2012,07,05,00,00,9.90
2012,07,05,00,01,9.90
2012,07,05,00,02,9.90
2012,07,05,00,03,9.80
2012,07,05,00,04,9.80
2012,07,05,00,05,9.80
2012,07,05,00,06,9.80
2012,07,05,00,07,9.80
2012,07,05,00,08,9.80
2012,07,05,00,09,9.80
2012,07,05,00,10,9.80
2012,07,05,00,11,9.80
2012,07,05,00,12,9.70
2012,07,05,00,13,9.70
2012,07,05,00,14,9.70
2012,07,05,00,15,9.70
2012,07,05,00,16,9.70
2012,07,05,00,17,9.70
2012,07,05,00,18,9.60
2012,07,05,00,19,9.60
2012,07,05,00,20,9.60
2012,07,05,00,21,9.60
2012,07,05,00,22,9.60
2012,07,05,00,23,9.60
2012,07,05,00,24,9.60
2012,07,05,00,25,9.50
2012,07,05,00,26,9.50
2012,07,05,00,27,9.50
2012,07,05,00,28,9.50
2012,07,05,00,29,9.50
2012,07,05,00,30,9.50
2012,07,05,00,31,9.50
2012,07,05,00,32,9.40
2012,07,05,00,33,9.40
2012,07,05,00,34,9.40
2012,07,05,00,35,9.40
2012,07,05,00,36,9.40
2012,07,05,00,37,9.40
2012,07,05,00,38,9.40
2012,07,05,00,39,9.40
2012,07,05,00,40,9.40
2012,07,05,00,41,9.40
2012,07,05,00,42,9.40
2012,07,05,00,43,9.40
2012,07,05,00,44,9.30
2012,07,05,00,45,9.30
2012,07,05,00,46,9.30
2012,07,05,00,47,9.30
2012,07,05,00,48,9.30
2012,07,05,00,49,9.30
2012,07,05,00,50,9.30
2012,07,05,00,51,9.30
2012,07,05,00,52,9.30
2012,07,05,00,53,9.20
2012,07,05,00,54,9.20
2012,07,05,00,55,9.20
2012,07,05,00,56,9.20
2012,07,05,00,57,9.20
2012,07,05,00,58,9.20
2012,07,05,00,59,9.20
2012,07,05,01,00,9.20
2012,07,05,01,01,9.20
2012,07,05,01,02,9.20
2012,07,05,01,03,9.10
2012,07,05,01,04,9.10
2012,07,05,01,05,9.10
2012,07,05,01,06,9.10
2012,07,05,01,07,9.10
2012,07,05,01,08,9.10
2012,07,05,01,09,9.10
2012,07,05,01,10,9.10
2012,07,05,01,11,9.10
2012,07,05,01,12,9.00
2012,07,05,01,13,9.00
2012,07,05,01,14,9.00
2012,07,05,01,15,9.00
2012,07,05,01,16,9.00
2012,07,05,01,17,8.90
2012,07,05,01,18,8.90
2012,07,05,01,19,8.90
2012,07,05,01,20,8.90
2012,07,05,01,21,8.90
2012,07,05,01,22,8.90
2012,07,05,01,23,8.90
2012,07,05,01,24,8.90
2012,07,05,01,25,8.90
2012,07,05,01,26,8.90
2012,07,05,01,27,8.90
2012,07,05,01,28,8.90
2012,07,05,01,29,8.90
2012,07,05,01,30,8.90
2012,07,05,01,31,8.90
2012,07,05,01,32,8.90
2012,07,05,01,33,8.80
2012,07,05,01,34,8.80
2012,07,05,01,35,8.80
2012,07,05,01,36,8.80
2012,07,05,01,37,8.80
2012,07,05,01,38,8.80
2012,07,05,01,39,8.80
2012,07,05,01,40,8.80
2012,07,05,01,41,8.80
2012,07,05,01,42,8.80
2012,07,05,01,43,8.80
2012,07,05,01,44,8.80
2012,07,05,01,45,8.80
2012,07,05,01,46,8.80
2012,07,05,01,47,8.70
2012,07,05,01,48,8.70
2012,07,05,01,49,8.70
2012,07,05,01,50,8.70
2012,07,05,01,51,8.70
2012,07,05,01,52,8.70
2012,07,05,01,53,8.70
2012,07,05,01,54,8.70
2012,07,05,01,55,8.70
2012,07,05,01,56,8.70
2012,07,05,01,57,8.70
2012,07,05,01,58,8.70
2012,07,05,01,59,8.70
2012,07,05,02,00,8.70
2012,07,05,02,01,8.70
2012,07,05,02,02,8.60
2012,07,05,02,03,8.60
2012,07,05,02,04,8.60
2012,07,05,02,05,8.60
2012,07,05,02,06,8.60
2012,07,05,02,07,8.60
2012,07,05,02,08,8.60
2012,07,05,02,09,8.60
2012,07,05,02,10,8.60
2012,07,05,02,11,8.50
2012,07,05,02,12,8.50
2012,07,05,02,13,8.50
2012,07,05,02,14,8.50
2012,07,05,02,15,8.50
2012,07,05,02,16,8.50
2012,07,05,02,17,8.50
2012,07,05,02,18,8.50
2012,07,05,02,19,8.50
2012,07,05,02,20,8.50
2012,07,05,02,21,8.50
2012,07,05,02,22,8.50
2012,07,05,02,23,8.50
2012,07,05,02,24,8.50
2012,07,05,02,25,8.50
2012,07,05,02,26,8.50
2012,07,05,02,27,8.40
2012,07,05,02,28,8.40
2012,07,05,02,29,8.40
2012,07,05,02,30,8.40
2012,07,05,02,31,8.40
2012,07,05,02,32,8.40
2012,07,05,02,33,8.40
2012,07,05,02,34,8.40
2012,07,05,02,35,8.40
2012,07,05,02,36,8.40
2012,07,05,02,37,8.40
2012,07,05,02,38,8.40
2012,07,05,02,39,8.40
2012,07,05,02,40,8.40
2012,07,05,02,41,8.40
2012,07,05,02,42,8.30
2012,07,05,02,43,8.30
2012,07,05,02,44,8.30
2012,07,05,02,45,8.30
2012,07,05,02,46,8.30
2012,07,05,02,47,8.30
2012,07,05,02,48,8.30
2012,07,05,02,49,8.30
2012,07,05,02,50,8.30
2012,07,05,02,51,8.30
2012,07,05,02,52,8.30
2012,07,05,02,53,8.30
2012,07,05,02,54,8.30
2012,07,05,02,55,8.30
2012,07,05,02,56,8.30
2012,07,05,02,57,8.30
2012,07,05,02,58,8.30
2012,07,05,02,59,8.30
2012,07,05,03,00,8.30
2012,07,05,03,01,8.30
2012,07,05,03,02,8.30
2012,07,05,03,06,8.30
2012,07,05,03,07,8.30
2012,07,05,03,08,8.30
2012,07,05,03,09,8.20
2012,07,05,03,10,8.20
2012,07,05,03,11,8.20
2012,07,05,03,12,8.20
2012,07,05,03,13,8.20
2012,07,05,03,14,8.10
2012,07,05,03,15,8.10
2012,07,05,03,16,8.10
2012,07,05,03,17,8.10
2012,07,05,03,18,8.10
2012,07,05,03,19,8.10
2012,07,05,03,20,8.10
2012,07,05,03,21,8.10
2012,07,05,03,22,8.10
2012,07,05,03,23,8.10
2012,07,05,03,24,8.10
2012,07,05,03,25,8.10
2012,07,05,03,26,8.10
2012,07,05,03,27,8.10
2012,07,05,03,28,8.10
2012,07,05,03,29,8.10
2012,07,05,03,30,8.10
2012,07,05,03,31,8.10
2012,07,05,03,32,8.10
2012,07,05,03,33,8.10
2012,07,05,03,34,8.10
2012,07,05,03,35,8.10
2012,07,05,03,36,8.10
2012,07,05,03,37,8.10
2012,07,05,03,38,8.10
2012,07,05,03,39,8.10
2012,07,05,03,40,8.10
2012,07,05,03,41,8.10
2012,07,05,03,42,8.10
2012,07,05,03,43,8.00
2012,07,05,03,44,8.00
2012,07,05,03,45,8.00
2012,07,05,03,46,8.00
2012,07,05,03,47,8.00
2012,07,05,03,48,8.00
2012,07,05,03,49,8.00
2012,07,05,03,50,8.00
2012,07,05,03,51,8.00
2012,07,05,03,52,8.00
2012,07,05,03,53,8.00
2012,07,05,03,54,8.00
2012,07,05,03,55,7.90
2012,07,05,03,56,7.90
2012,07,05,03,57,7.90
2012,07,05,03,58,7.90
2012,07,05,03,59,7.90
2012,07,05,04,00,7.90
2012,07,05,04,01,7.90
2012,07,05,04,02,7.90
2012,07,05,04,03,7.90
2012,07,05,04,04,7.90
2012,07,05,04,05,7.90
2012,07,05,04,06,7.90
2012,07,05,04,07,7.90
2012,07,05,04,08,7.90
2012,07,05,04,09,7.90
2012,07,05,04,10,7.90
2012,07,05,04,11,7.90
2012,07,05,04,12,7.90
2012,07,05,04,13,7.90
2012,07,05,04,14,7.90
2012,07,05,04,15,7.90
2012,07,05,04,16,7.90
2012,07,05,04,17,7.90
2012,07,05,04,18,7.90
2012,07,05,04,19,7.80
2012,07,05,04,20,7.80
2012,07,05,04,21,7.80
2012,07,05,04,22,7.80
2012,07,05,04,23,7.90
2012,07,05,04,24,7.80
2012,07,05,04,25,7.80
2012,07,05,04,26,7.80
2012,07,05,04,27,7.80
2012,07,05,04,28,7.80
2012,07,05,04,29,7.80
2012,07,05,04,30,7.80
2012,07,05,04,31,7.80
2012,07,05,04,32,7.80
2012,07,05,04,33,7.80
2012,07,05,04,34,7.80
2012,07,05,04,35,7.80
2012,07,05,04,36,7.80
2012,07,05,04,37,7.80
2012,07,05,04,38,7.70
2012,07,05,04,39,7.70
2012,07,05,04,40,7.70
2012,07,05,04,41,7.70
2012,07,05,04,42,7.70
2012,07,05,04,43,7.70
2012,07,05,04,44,7.70
2012,07,05,04,45,7.60
2012,07,05,04,46,7.60
2012,07,05,04,47,7.60
2012,07,05,04,48,7.60
2012,07,05,04,49,7.60
2012,07,05,04,50,7.60
2012,07,05,04,51,7.60
2012,07,05,04,52,7.60
2012,07,05,04,53,7.50
2012,07,05,04,54,7.50
2012,07,05,04,55,7.50
2012,07,05,04,56,7.50
2012,07,05,04,57,7.60
2012,07,05,04,58,7.50
2012,07,05,04,59,7.50
2012,07,05,05,00,7.50
2012,07,05,05,01,7.50
2012,07,05,05,02,7.50
2012,07,05,05,03,7.50
2012,07,05,05,04,7.50
2012,07,05,05,05,7.50
2012,07,05,05,06,7.60
2012,07,05,05,07,7.60
2012,07,05,05,08,7.60
2012,07,05,05,09,7.60
2012,07,05,05,10,7.60
2012,07,05,05,11,7.60
2012,07,05,05,12,7.60
2012,07,05,05,13,7.60
2012,07,05,05,14,7.60
2012,07,05,05,15,7.60
2012,07,05,05,16,7.60
2012,07,05,05,17,7.60
2012,07,05,05,18,7.60
2012,07,05,05,19,7.60
2012,07,05,05,20,7.60
2012,07,05,05,21,7.60
2012,07,05,05,22,7.60
2012,07,05,05,23,7.60
2012,07,05,05,24,7.60
2012,07,05,05,25,7.60
2012,07,05,05,26,7.60
2012,07,05,05,27,7.60
2012,07,05,05,28,7.60
2012,07,05,05,29,7.60
2012,07,05,05,30,7.60
2012,07,05,05,31,7.60
2012,07,05,05,32,7.60
2012,07,05,05,33,7.60
2012,07,05,05,34,7.60
2012,07,05,05,35,7.60
2012,07,05,05,36,7.60
2012,07,05,05,37,7.60
2012,07,05,05,38,7.60
2012,07,05,05,39,7.60
2012,07,05,05,40,7.60
2012,07,05,05,41,7.60
2012,07,05,05,42,7.60
2012,07,05,05,43,7.60
2012,07,05,05,44,7.60
2012,07,05,05,45,7.60
2012,07,05,05,46,7.60
2012,07,05,05,47,7.60
2012,07,05,05,48,7.60
2012,07,05,05,49,7.60
2012,07,05,05,50,7.60
2012,07,05,05,51,7.60
2012,07,05,05,52,7.60
2012,07,05,05,53,7.60
2012,07,05,05,54,7.60
2012,07,05,05,55,7.70
2012,07,05,05,56,7.70
2012,07,05,05,57,7.70
2012,07,05,05,58,7.70
2012,07,05,05,59,7.70
2012,07,05,06,00,7.70
2012,07,05,06,01,7.70
2012,07,05,06,02,7.70
2012,07,05,06,03,7.70
2012,07,05,06,04,7.80
2012,07,05,06,05,7.80
2012,07,05,06,06,7.80
2012,07,05,06,07,7.80
2012,07,05,06,08,7.80
2012,07,05,06,09,7.80
2012,07,05,06,10,7.80
2012,07,05,06,11,7.90
2012,07,05,06,12,7.90
2012,07,05,06,13,7.90
2012,07,05,06,14,7.90
2012,07,05,06,15,7.90
2012,07,05,06,16,7.90
2012,07,05,06,17,7.90
2012,07,05,06,18,7.90
2012,07,05,06,19,7.90
2012,07,05,06,20,7.90
2012,07,05,06,21,8.00
2012,07,05,06,22,8.00
2012,07,05,06,23,8.00
2012,07,05,06,24,8.10
2012,07,05,06,25,8.10
2012,07,05,06,26,8.10
2012,07,05,06,27,8.10
2012,07,05,06,28,8.20
2012,07,05,06,29,8.20
2012,07,05,06,30,8.20
2012,07,05,06,31,8.30
2012,07,05,06,32,8.30
2012,07,05,06,33,8.30
2012,07,05,06,34,8.40
2012,07,05,06,35,8.40
2012,07,05,06,36,8.40
2012,07,05,06,37,8.50
2012,07,05,06,38,8.50
2012,07,05,06,39,8.60
2012,07,05,06,40,8.60
2012,07,05,06,41,8.70
2012,07,05,06,42,8.70
2012,07,05,06,43,8.80
2012,07,05,06,44,8.80
2012,07,05,06,45,8.90
2012,07,05,06,46,8.90
2012,07,05,06,47,8.90
2012,07,05,06,48,9.00
2012,07,05,06,49,9.10
2012,07,05,06,50,9.10
2012,07,05,06,51,9.20
2012,07,05,06,52,9.20
2012,07,05,06,53,9.30
2012,07,05,06,54,9.40
2012,07,05,06,55,9.50
2012,07,05,06,56,9.60
2012,07,05,06,57,9.70
2012,07,05,06,58,9.70
2012,07,05,06,59,9.80
2012,07,05,07,00,9.90
2012,07,05,07,01,10.00
2012,07,05,07,02,10.10
2012,07,05,07,03,10.10
2012,07,05,07,04,10.20
2012,07,05,07,05,10.30
2012,07,05,07,06,10.40
2012,07,05,07,07,10.50
2012,07,05,07,08,10.70
2012,07,05,07,09,10.80
2012,07,05,07,10,10.90
2012,07,05,07,11,11.00
2012,07,05,07,12,11.10
2012,07,05,07,13,11.10
2012,07,05,07,14,11.20
2012,07,05,07,15,11.30
2012,07,05,07,16,11.40
2012,07,05,07,17,11.50
2012,07,05,07,18,11.60
2012,07,05,07,19,11.60
2012,07,05,07,20,11.70
2012,07,05,07,21,11.80
2012,07,05,07,22,11.80
2012,07,05,07,23,11.90
2012,07,05,07,24,12.00
2012,07,05,07,25,12.00
2012,07,05,07,26,12.10
2012,07,05,07,27,12.10
2012,07,05,07,28,12.20
2012,07,05,07,29,12.20
2012,07,05,07,30,12.30
2012,07,05,07,31,12.30
2012,07,05,07,32,12.40
2012,07,05,07,33,12.40
2012,07,05,07,34,12.50
2012,07,05,07,35,12.60
2012,07,05,07,36,12.60
2012,07,05,07,37,12.70
2012,07,05,07,38,12.70
2012,07,05,07,39,12.80
2012,07,05,07,40,12.80
2012,07,05,07,41,12.90
2012,07,05,07,42,13.00
2012,07,05,07,43,13.00
2012,07,05,07,44,13.10
2012,07,05,07,45,13.10
2012,07,05,07,46,13.20
2012,07,05,07,47,13.20
2012,07,05,07,48,13.20
2012,07,05,07,49,13.30
2012,07,05,07,50,13.30
2012,07,05,07,51,13.30
2012,07,05,07,52,13.40
2012,07,05,07,53,13.40
2012,07,05,07,54,13.50
2012,07,05,07,55,13.50
2012,07,05,07,56,13.50
2012,07,05,07,57,13.60
2012,07,05,07,58,13.60
2012,07,05,07,59,13.60
2012,07,05,08,00,13.60
2012,07,05,08,01,13.60
2012,07,05,08,02,13.60
2012,07,05,08,03,13.70
2012,07,05,08,04,13.70
2012,07,05,08,05,13.70
2012,07,05,08,06,13.70
2012,07,05,08,07,13.80
2012,07,05,08,08,13.80
2012,07,05,08,09,13.80
2012,07,05,08,10,13.80
2012,07,05,08,11,13.90
2012,07,05,08,12,13.90
2012,07,05,08,13,13.90
2012,07,05,08,14,14.00
2012,07,05,08,15,14.00
2012,07,05,08,16,14.10
2012,07,05,08,17,14.10
2012,07,05,08,18,14.20
2012,07,05,08,19,14.20
2012,07,05,08,20,14.20
2012,07,05,08,21,14.30
2012,07,05,08,22,14.30
2012,07,05,08,23,14.30
2012,07,05,08,24,14.30
2012,07,05,08,25,14.40
2012,07,05,08,26,14.40
2012,07,05,08,27,14.40
2012,07,05,08,28,14.40
2012,07,05,08,29,14.50
2012,07,05,08,30,14.50
2012,07,05,08,31,14.50
2012,07,05,08,32,14.60
2012,07,05,08,33,14.60
2012,07,05,08,34,14.60
2012,07,05,08,35,14.60
2012,07,05,08,36,14.70
2012,07,05,08,37,14.70
2012,07,05,08,38,14.70
2012,07,05,08,39,14.80
2012,07,05,08,40,14.80
2012,07,05,08,41,14.80
2012,07,05,08,42,14.80
2012,07,05,08,43,14.90
2012,07,05,08,44,14.90
2012,07,05,08,45,14.90
2012,07,05,08,46,15.00
2012,07,05,08,47,15.00
2012,07,05,08,48,15.00
2012,07,05,08,49,15.10
2012,07,05,08,50,15.10
2012,07,05,08,51,15.20
2012,07,05,08,52,15.20
2012,07,05,08,53,15.20
2012,07,05,08,54,15.30
2012,07,05,08,55,15.30
2012,07,05,08,56,15.30
2012,07,05,08,57,15.40
2012,07,05,08,58,15.40
2012,07,05,08,59,15.40
2012,07,05,09,00,15.40
2012,07,05,09,01,15.40
2012,07,05,09,02,15.40
2012,07,05,09,03,15.50
2012,07,05,09,04,15.50
2012,07,05,09,05,15.50
2012,07,05,09,06,15.50
2012,07,05,09,07,15.50
2012,07,05,09,08,15.60
2012,07,05,09,09,15.60
2012,07,05,09,10,15.60
2012,07,05,09,11,15.60
2012,07,05,09,12,15.70
2012,07,05,09,13,15.70
2012,07,05,09,14,15.70
2012,07,05,09,15,15.80
2012,07,05,09,16,15.80
2012,07,05,09,17,15.80
2012,07,05,09,18,15.80
2012,07,05,09,19,15.70
2012,07,05,09,20,15.70
2012,07,05,09,21,15.70
2012,07,05,09,22,15.70
2012,07,05,09,23,15.70
2012,07,05,09,24,15.70
2012,07,05,09,25,15.80
2012,07,05,09,26,15.80
2012,07,05,09,27,15.80
2012,07,05,09,28,15.80
2012,07,05,09,29,15.80
2012,07,05,09,30,15.80
2012,07,05,09,31,15.80
2012,07,05,09,32,15.80
2012,07,05,09,33,15.90
2012,07,05,09,34,15.90
2012,07,05,09,35,15.90
2012,07,05,09,36,16.00
2012,07,05,09,37,16.00
2012,07,05,09,38,16.10
2012,07,05,09,39,16.20
2012,07,05,09,40,16.20
2012,07,05,09,41,16.20
2012,07,05,09,42,16.10
2012,07,05,09,43,16.10
2012,07,05,09,44,16.20
2012,07,05,09,45,16.20
2012,07,05,09,46,16.20
2012,07,05,09,47,16.20
2012,07,05,09,48,16.20
2012,07,05,09,49,16.30
2012,07,05,09,50,16.30
2012,07,05,09,51,16.30
2012,07,05,09,52,16.40
2012,07,05,09,53,16.50
2012,07,05,09,54,16.60
2012,07,05,09,55,16.60
2012,07,05,09,56,16.60
2012,07,05,09,57,16.70
2012,07,05,09,58,16.70
2012,07,05,09,59,16.70
2012,07,05,10,00,16.80
2012,07,05,10,01,16.80
2012,07,05,10,02,16.80
2012,07,05,10,03,16.80
2012,07,05,10,04,16.80
2012,07,05,10,05,16.90
2012,07,05,10,06,17.00
2012,07,05,10,07,17.10
2012,07,05,10,08,17.20
2012,07,05,10,09,17.20
2012,07,05,10,10,17.20
2012,07,05,10,11,17.20
2012,07,05,10,12,17.20
2012,07,05,10,13,17.30
2012,07,05,10,14,17.30
2012,07,05,10,15,17.30
2012,07,05,10,16,17.40
2012,07,05,10,17,17.40
2012,07,05,10,18,17.40
2012,07,05,10,19,17.40
2012,07,05,10,20,17.30
2012,07,05,10,21,17.30
2012,07,05,10,22,17.30
2012,07,05,10,23,17.30
2012,07,05,10,24,17.30
2012,07,05,10,25,17.30
2012,07,05,10,26,17.20
2012,07,05,10,27,17.10
2012,07,05,10,28,17.10
2012,07,05,10,29,17.10
2012,07,05,10,30,17.10
2012,07,05,10,31,17.10
2012,07,05,10,32,17.10
2012,07,05,10,33,17.20
2012,07,05,10,34,17.20
2012,07,05,10,35,17.20
2012,07,05,10,36,17.20
2012,07,05,10,37,17.20
2012,07,05,10,38,17.20
2012,07,05,10,39,17.20
2012,07,05,10,40,17.30
2012,07,05,10,41,17.30
2012,07,05,10,42,17.30
2012,07,05,10,43,17.40
2012,07,05,10,44,17.40
2012,07,05,10,45,17.40
2012,07,05,10,46,17.40
2012,07,05,10,47,17.40
2012,07,05,10,48,17.40
2012,07,05,10,49,17.50
2012,07,05,10,50,17.60
2012,07,05,10,51,17.60
2012,07,05,10,52,17.60
2012,07,05,10,53,17.60
2012,07,05,10,54,17.60
2012,07,05,10,55,17.70
2012,07,05,10,56,17.70
2012,07,05,10,57,17.70
2012,07,05,10,58,17.70
2012,07,05,10,59,17.70
2012,07,05,11,00,17.70
2012,07,05,11,01,17.80
2012,07,05,11,02,17.80
2012,07,05,11,03,17.80
2012,07,05,11,04,17.80
2012,07,05,11,05,17.80
2012,07,05,11,06,17.80
2012,07,05,11,07,17.90
2012,07,05,11,08,18.00
2012,07,05,11,09,18.10
2012,07,05,11,10,18.20
2012,07,05,11,11,18.30
2012,07,05,11,12,18.40
2012,07,05,11,13,18.50
2012,07,05,11,14,18.50
2012,07,05,11,15,18.50
2012,07,05,11,16,18.50
2012,07,05,11,17,18.40
2012,07,05,11,18,18.40
2012,07,05,11,19,18.30
2012,07,05,11,20,18.30
2012,07,05,11,21,18.30
2012,07,05,11,22,18.30
2012,07,05,11,23,18.30
2012,07,05,11,24,18.30
2012,07,05,11,25,18.30
2012,07,05,11,26,18.20
2012,07,05,11,27,18.30
2012,07,05,11,28,18.40
2012,07,05,11,29,18.40
2012,07,05,11,30,18.40
2012,07,05,11,31,18.40
2012,07,05,11,32,18.40
2012,07,05,11,33,18.50
2012,07,05,11,34,18.50
2012,07,05,11,35,18.50
2012,07,05,11,36,18.50
2012,07,05,11,37,18.60
2012,07,05,11,38,18.60
2012,07,05,11,39,18.60
2012,07,05,11,40,18.60
2012,07,05,11,41,18.60
2012,07,05,11,42,18.60
2012,07,05,11,43,18.60
2012,07,05,11,44,18.60
2012,07,05,11,45,18.70
2012,07,05,11,46,18.80
2012,07,05,11,47,18.90
2012,07,05,11,48,18.90
2012,07,05,11,49,18.80
2012,07,05,11,50,18.80
2012,07,05,11,51,18.80
2012,07,05,11,52,18.80
2012,07,05,11,53,18.70
2012,07,05,11,54,18.60
2012,07,05,11,55,18.50
2012,07,05,11,56,18.50
2012,07,05,11,57,18.50
2012,07,05,11,58,18.50
2012,07,05,11,59,18.60
2012,07,05,12,00,18.60
2012,07,05,12,01,18.60
2012,07,05,12,02,18.60
2012,07,05,12,03,18.60
2012,07,05,12,04,18.60
2012,07,05,12,05,18.60
2012,07,05,12,06,18.50
2012,07,05,12,07,18.40
2012,07,05,12,08,18.40
2012,07,05,12,09,18.40
2012,07,05,12,10,18.40
2012,07,05,12,11,18.40
2012,07,05,12,12,18.50
2012,07,05,12,13,18.50
2012,07,05,12,14,18.60
2012,07,05,12,15,18.60
2012,07,05,12,16,18.60
2012,07,05,12,17,18.60
2012,07,05,12,18,18.70
2012,07,05,12,19,18.70
2012,07,05,12,20,18.80
2012,07,05,12,21,18.90
2012,07,05,12,22,18.90
2012,07,05,12,23,18.90
2012,07,05,12,24,18.90
2012,07,05,12,25,18.90
2012,07,05,12,26,18.90
2012,07,05,12,27,18.90
2012,07,05,12,28,18.80
2012,07,05,12,29,18.80
2012,07,05,12,30,18.80
2012,07,05,12,31,18.70
2012,07,05,12,32,18.70
2012,07,05,12,33,18.70
2012,07,05,12,34,18.70
2012,07,05,12,35,18.70
2012,07,05,12,36,18.70
2012,07,05,12,37,18.70
2012,07,05,12,38,18.80
2012,07,05,12,39,18.90
2012,07,05,12,40,18.90
2012,07,05,12,41,19.00
2012,07,05,12,42,19.00
2012,07,05,12,43,19.00
2012,07,05,12,44,19.10
2012,07,05,12,45,19.10
2012,07,05,12,46,19.10
2012,07,05,12,47,19.10
2012,07,05,12,48,19.10
2012,07,05,12,49,19.20
2012,07,05,12,50,19.20
2012,07,05,12,51,19.20
2012,07,05,12,52,19.20
2012,07,05,12,53,19.20
2012,07,05,12,54,19.20
2012,07,05,12,55,19.20
2012,07,05,12,56,19.20
2012,07,05,12,57,19.20
2012,07,05,12,58,19.20
2012,07,05,12,59,19.20
2012,07,05,13,00,19.20
2012,07,05,13,01,19.20
2012,07,05,13,02,19.20
2012,07,05,13,03,19.30
2012,07,05,13,04,19.30
2012,07,05,13,05,19.30
2012,07,05,13,06,19.30
2012,07,05,13,07,19.20
2012,07,05,13,08,19.20
2012,07,05,13,09,19.20
2012,07,05,13,10,19.20
2012,07,05,13,11,19.20
2012,07,05,13,12,19.20
2012,07,05,13,13,19.20
2012,07,05,13,14,19.20
2012,07,05,13,15,19.30
2012,07,05,13,16,19.30
2012,07,05,13,17,19.30
2012,07,05,13,18,19.40
2012,07,05,13,19,19.40
2012,07,05,13,20,19.50
2012,07,05,13,21,19.40
2012,07,05,13,22,19.40
2012,07,05,13,23,19.40
2012,07,05,13,24,19.50
2012,07,05,13,25,19.50
2012,07,05,13,26,19.60
2012,07,05,13,27,19.70
2012,07,05,13,28,19.70
2012,07,05,13,29,19.80
2012,07,05,13,30,19.80
2012,07,05,13,31,19.90
2012,07,05,13,32,19.90
2012,07,05,13,33,19.90
2012,07,05,13,34,19.90
2012,07,05,13,35,19.90
2012,07,05,13,36,19.90
2012,07,05,13,37,19.90
2012,07,05,13,38,20.00
2012,07,05,13,39,20.00
2012,07,05,13,40,20.00
2012,07,05,13,41,20.10
2012,07,05,13,42,20.10
2012,07,05,13,43,20.10
2012,07,05,13,44,20.10
2012,07,05,13,45,20.00
2012,07,05,13,46,20.00
2012,07,05,13,47,19.90
2012,07,05,13,48,19.90
2012,07,05,13,49,19.90
2012,07,05,13,50,19.80
2012,07,05,13,51,19.80
2012,07,05,13,52,19.80
2012,07,05,13,53,19.70
2012,07,05,13,54,19.70
2012,07,05,13,55,19.70
2012,07,05,13,56,19.70
2012,07,05,13,57,19.70
2012,07,05,13,58,19.70
2012,07,05,13,59,19.70
2012,07,05,14,00,19.80
2012,07,05,14,01,19.90
2012,07,05,14,02,20.00
2012,07,05,14,03,20.00
2012,07,05,14,04,20.00
2012,07,05,14,05,20.10
2012,07,05,14,06,20.10
2012,07,05,14,07,20.20
2012,07,05,14,08,20.20
2012,07,05,14,09,20.20
2012,07,05,14,10,20.20
2012,07,05,14,11,20.20
2012,07,05,14,12,20.10
2012,07,05,14,13,20.10
2012,07,05,14,14,20.00
2012,07,05,14,15,20.00
2012,07,05,14,16,19.90
2012,07,05,14,17,19.90
2012,07,05,14,18,19.90
2012,07,05,14,19,19.90
2012,07,05,14,20,19.90
2012,07,05,14,21,20.00
2012,07,05,14,22,20.00
2012,07,05,14,23,20.00
2012,07,05,14,24,20.00
2012,07,05,14,25,20.10
2012,07,05,14,26,20.10
2012,07,05,14,27,20.10
2012,07,05,14,28,20.20
2012,07,05,14,29,20.20
2012,07,05,14,30,20.20
2012,07,05,14,31,20.20
2012,07,05,14,32,20.30
2012,07,05,14,33,20.40
2012,07,05,14,34,20.40
2012,07,05,14,35,20.40
2012,07,05,14,36,20.40
2012,07,05,14,37,20.40
2012,07,05,14,38,20.30
2012,07,05,14,39,20.30
2012,07,05,14,40,20.30
2012,07,05,14,41,20.30
2012,07,05,14,42,20.30
2012,07,05,14,43,20.30
2012,07,05,14,44,20.30
2012,07,05,14,45,20.30
2012,07,05,14,46,20.30
2012,07,05,14,47,20.40
2012,07,05,14,48,20.40
2012,07,05,14,49,20.50
2012,07,05,14,50,20.50
2012,07,05,14,51,20.40
2012,07,05,14,52,20.40
2012,07,05,14,53,20.40
2012,07,05,14,54,20.40
2012,07,05,14,55,20.40
2012,07,05,14,56,20.40
2012,07,05,14,57,20.40
2012,07,05,14,58,20.40
2012,07,05,14,59,20.50
2012,07,05,15,00,20.40
2012,07,05,15,01,20.40
2012,07,05,15,02,20.40
2012,07,05,15,03,20.40
2012,07,05,15,04,20.50
2012,07,05,15,05,20.50
2012,07,05,15,06,20.60
2012,07,05,15,07,20.60
2012,07,05,15,08,20.60
2012,07,05,15,09,20.50
2012,07,05,15,10,20.50
2012,07,05,15,11,20.50
2012,07,05,15,12,20.50
2012,07,05,15,13,20.50
2012,07,05,15,14,20.50
2012,07,05,15,15,20.40
2012,07,05,15,16,20.40
2012,07,05,15,17,20.40
2012,07,05,15,18,20.40
2012,07,05,15,19,20.50
2012,07,05,15,20,20.60
2012,07,05,15,21,20.60
2012,07,05,15,22,20.50
2012,07,05,15,23,20.50
2012,07,05,15,24,20.60
2012,07,05,15,25,20.60
2012,07,05,15,26,20.70
2012,07,05,15,27,20.80
2012,07,05,15,28,20.80
2012,07,05,15,29,20.80
2012,07,05,15,30,20.80
2012,07,05,15,31,20.80
2012,07,05,15,32,20.80
2012,07,05,15,33,20.80
2012,07,05,15,34,20.80
2012,07,05,15,35,20.90
2012,07,05,15,36,20.90
2012,07,05,15,37,20.90
2012,07,05,15,38,21.00
2012,07,05,15,39,21.00
2012,07,05,15,40,21.00
2012,07,05,15,41,21.10
2012,07,05,15,42,21.20
2012,07,05,15,43,21.20
2012,07,05,15,44,21.20
2012,07,05,15,45,21.30
2012,07,05,15,46,21.30
2012,07,05,15,47,21.30
2012,07,05,15,48,21.40
2012,07,05,15,49,21.40
2012,07,05,15,50,21.40
2012,07,05,15,51,21.50
2012,07,05,15,52,21.50
2012,07,05,15,53,21.50
2012,07,05,15,54,21.40
2012,07,05,15,55,21.40
2012,07,05,15,56,21.30
2012,07,05,15,57,21.30
2012,07,05,15,58,21.30
2012,07,05,15,59,21.40
2012,07,05,16,00,21.40
2012,07,05,16,01,21.40
2012,07,05,16,02,21.40
2012,07,05,16,03,21.40
2012,07,05,16,04,21.30
2012,07,05,16,05,21.30
2012,07,05,16,06,21.30
2012,07,05,16,07,21.20
2012,07,05,16,08,21.20
2012,07,05,16,09,21.10
2012,07,05,16,10,21.00
2012,07,05,16,11,20.90
2012,07,05,16,12,20.90
2012,07,05,16,13,20.90
2012,07,05,16,14,20.90
2012,07,05,16,15,20.90
2012,07,05,16,16,20.90
2012,07,05,16,17,20.90
2012,07,05,16,18,20.90
2012,07,05,16,19,20.90
2012,07,05,16,20,20.90
2012,07,05,16,21,20.90
2012,07,05,16,22,20.90
2012,07,05,16,23,20.90
2012,07,05,16,24,20.90
2012,07,05,16,25,20.90
2012,07,05,16,26,21.00
2012,07,05,16,27,21.10
2012,07,05,16,28,21.10
2012,07,05,16,29,21.20
2012,07,05,16,30,21.20
2012,07,05,16,31,21.20
2012,07,05,16,32,21.20
2012,07,05,16,33,21.10
2012,07,05,16,34,21.10
2012,07,05,16,35,21.10
2012,07,05,16,36,21.10
2012,07,05,16,37,21.00
2012,07,05,16,38,21.00
2012,07,05,16,39,20.90
2012,07,05,16,40,20.90
2012,07,05,16,41,20.90
2012,07,05,16,42,20.90
2012,07,05,16,43,20.90
2012,07,05,16,44,20.90
2012,07,05,16,45,20.90
2012,07,05,16,46,20.90
2012,07,05,16,47,20.90
2012,07,05,16,48,20.90
2012,07,05,16,49,20.80
2012,07,05,16,50,20.80
2012,07,05,16,51,20.80
2012,07,05,16,52,20.80
2012,07,05,16,53,20.70
2012,07,05,16,54,20.70
2012,07,05,16,55,20.70
2012,07,05,16,56,20.70
2012,07,05,16,57,20.70
2012,07,05,16,58,20.70
2012,07,05,16,59,20.70
2012,07,05,17,00,20.70
2012,07,05,17,01,20.70
2012,07,05,17,02,20.70
2012,07,05,17,03,20.70
2012,07,05,17,04,20.70
2012,07,05,17,05,20.80
2012,07,05,17,06,20.80
2012,07,05,17,07,20.90
2012,07,05,17,08,20.90
2012,07,05,17,09,21.00
2012,07,05,17,10,21.10
2012,07,05,17,11,21.10
2012,07,05,17,12,21.10
2012,07,05,17,13,21.10
2012,07,05,17,14,21.10
2012,07,05,17,15,21.10
2012,07,05,17,16,21.10
2012,07,05,17,17,21.10
2012,07,05,17,18,21.10
2012,07,05,17,19,21.20
2012,07,05,17,20,21.20
2012,07,05,17,21,21.20
2012,07,05,17,22,21.20
2012,07,05,17,23,21.10
2012,07,05,17,24,21.10
2012,07,05,17,25,21.10
2012,07,05,17,26,21.10
2012,07,05,17,27,21.10
2012,07,05,17,28,21.00
2012,07,05,17,29,20.90
2012,07,05,17,30,20.90
2012,07,05,17,31,20.80
2012,07,05,17,32,20.80
2012,07,05,17,33,20.80
2012,07,05,17,34,20.80
2012,07,05,17,35,20.80
2012,07,05,17,36,20.80
2012,07,05,17,37,20.80
2012,07,05,17,38,20.80
2012,07,05,17,39,20.80
2012,07,05,17,40,20.80